FALCON 9 DEB (48701 NORAD) Tracking and Keplerian Element Data

This shows tracking and keplerian element data for the satellite.

Feedback or suggestion? Click here.




ElementValue
Catalog48701
NameFALCON 9 DEB
Epoch Orbit450
Epoch Day174.67977933
Epoch Year2021
RAAN279.7665
Inclination53.0322
Eccentricity0.0010962
Argument of Perigee299.6452
Mean Anonmoly60.3503
Mean Motion16.41279103
Decay Rate0.06445994
L11 48701U 21044BR 21174.67977933 .06445994 12471-4 37940-3 0 9993
L22 48701 53.0322 279.7665 0010962 299.6452 60.3503 16.41279103 4504

Live tracking and technical data element details for FALCON 9 DEB (NORAD 48701). FALCON 9 DEB can be tracked NOW for your location showing map with azimuth and elevation plus other details from your city location.

Track the satellite on the map from your city or location and see movement details for azimuth, elevation, latitude, longitude, range, height, and movement on the map or in text.







IsCatalogInMostPopularTable: catalog: 48701, numindb: 15
Update: records affected: 1



GetName: 48701 FALCON 9 DEB

Hit Count: updated at: Wed, 04 Aug 2021 00:31:03 GMT